Location: ??
(35.5653°N, 139.6194°E)
Time: 07:30:01
(UTC+00:00)

ALOS - Pass Details

Date: 20 November 2019
Orbit: 683 x 685 km, 97.8° (Epoch: 12 December)

Event Time Altitude Azimuth Distance (km) Brightness Sun altitude
Rises 20:02:19 0° 12° (NNE) 3,052 5.6 -16.2°
Reaches altitude 10° 20:04:34 10° 12° (NNE) 2,133 4.8 -15.8°
Maximum altitude 20:09:15 88° 97° (E) 689 2.2 -14.9°
Drops below altitude 10° 20:13:54 10° 193° (SSW) 2,120 4.8 -13.9°
Sets 20:16:08 0° 193° (SSW) 3,031 5.6 -13.5°
